Paris, France

02:37 CET le 28 février 2017 (GMT +0100)
Charles de Gaulle | | Change Station

Alt. 358 ft 49.02 °N, 2.53 °E | Updated 7 minutes ago

Scattered Clouds
Nuages épars
41 ° F
Paraît 32 ° F
N
17
Vent Variable Vent de SO

Aujourd'hui
Haut(e) -- | Bas -- ° F
--% Risque de précip.
Hier
Haut(e) -- | Bas -- ° F
Precip. -- pouce
Pression 29.36 pouce
Visibilité 6.2 Miles terrestres
Nuages Nuages épars 2100 ft
Nuages épars 16000 ft
Refroidissement éolien 32 ° F
Point de rosée 34 ° F
Humidité 76%
Précipitations 0.00 pouce
Profondeur de la couche neigeuse Non disponible.
7:33 AM 6:31 PM
Lune montante, 3% visible
METAR LFPG 280130Z 23015KT 9999 SCT021 SCT160 05/01 Q0994 TEMPO 23020G30KT
Pression 29.36 pouce
Visibilité 6.2 Miles terrestres
Nuages Nuages épars 2100 ft
Nuages épars 16000 ft
Refroidissement éolien 32 ° F
Point de rosée 34 ° F
Humidité 76%
Précipitations 0.00 pouce
Profondeur de la couche neigeuse Non disponible.
7:33 AM 6:31 PM
Lune montante, 3% visible
METAR LFPG 280130Z 23015KT 9999 SCT021 SCT160 05/01 Q0994 TEMPO 23020G30KT

Get Your Daily Forecast Email!

Thanks for signing up!

Be on the lookout for a verification email in your inbox.

You'll start receiving the daily forecast at 8 AM.

×

10-Day Weather Forecast

×

Almanac

Astronomie

Feb. 28, 2017 Lever Coucher
Temps réel
Crépuscule civil
Crépuscule nautique
Crépuscule astronomique
Lune
Durée de lumière visible
Longueur du jour
Tomorrow will be .
, % of the Moon is Illuminated

Extrêmes aujourd'hui

Country Highs Country Lows

Community

WunderPhotos

Upload Photos

1,962,540 Photos téléchargées !

WunderBlog® & News

Nearby

Qualité de l'air

  Qualité de l'air Indice de la qualité de l'air Polluant
Not available.

Épaisseur de neige

Station Depth Altitude

Activité sismique

Ville Distance Mag. Time & Date
Minimum magnitude displayed is 2.5.

Températures des eaux côtières

Lieu Température

Stations

Stations météo à proximité

Emplacement de la station Température Refroidissement éolien Point de rosée Humidité Vent Precip. Alt. Mise à jour Type